Location: Lake Zurich
(42.1970°N, 88.0930°W)
Time: 19:28:11
(UTC-05:00)

Amateur Radio Satellites - All Passes

Search period start: 02 August 2015 18:58
Search period end: 03 August 2015 18:58
Location: Lake Zurich, 42.1970°N, 88.0930°W

Satellite Date Start Highest point End Downlink Frequencies (MHz)
Time Altitude Azimuth
Cosmos 2499 02 Aug 18:59:31 19:08:21 81° 81° (E) 19:17:15 435.465 / 435.565
CUBESAT XI-V 02 Aug 19:03:17 19:07:55 73° 103° (ESE) 19:12:30 437.345
PHONESAT 2.4 02 Aug 19:04:00 19:06:14 16° 151° (SSE) 19:08:32 2401.200-2431.200
CUTE 1.7 + AOD 2 02 Aug 19:19:00 19:20:20 12° 63° (ENE) 19:21:53 437.475
Cubesat XI-IV 02 Aug 19:24:02 19:28:31 26° 267° (W) 19:32:54 437.490
PRISM 02 Aug 19:26:11 19:29:38 26° 95° (E) 19:33:07 437.425
CANX-2 02 Aug 19:26:25 19:28:53 16° 65° (ENE) 19:31:30 2200.000
DOVE 4 02 Aug 19:27:35 19:30:12 17° 66° (ENE) 19:32:56 437.250
RS-15 02 Aug 19:28:08 19:33:13 15° 99° (E) 19:39:17 29.354- 29.394
PCSat 02 Aug 19:36:32 19:40:33 21° 253° (WSW) 19:44:23 145.827
BRITE-PL 02 Aug 19:43:24 19:47:45 74° 76° (ENE) 19:51:56 437.365/2234.400
GOMX 1 02 Aug 19:45:52 19:49:51 43° 73° (ENE) 19:53:48 467.674
VERMONT LUNAR 02 Aug 19:58:50 20:02:00 65° 179° (S) 20:05:09 437.305
STRAND 1 02 Aug 20:13:25 20:18:33 82° 287° (WNW) 20:23:39 437.568
ISS 02 Aug 20:15:13 20:18:03 28° 137° (SE) 20:20:56 145.825
COMPASS 1 02 Aug 20:28:08 20:32:02 39° 72° (ENE) 20:36:01 437.405
ZACube-1 02 Aug 20:34:46 20:36:08 12° 62° (ENE) 20:37:42 437.345
HO-68 02 Aug 20:36:26 20:43:35 89° 253° (WSW) 20:50:48 435.675
PHONESAT 2.4 02 Aug 20:40:22 20:43:46 47° 166° (SSE) 20:47:10 2401.200-2431.200
CUBESAT XI-V 02 Aug 20:42:41 20:44:48 13° 297° (WNW) 20:46:43 437.345
DELFI C3 02 Aug 20:43:31 20:45:46 15° 66° (ENE) 20:48:12 145.870
SEEDS 02 Aug 20:45:42 20:49:57 79° 74° (ENE) 20:54:14 437.485
CUTE 1.7 + AOD 2 02 Aug 20:51:26 20:55:42 72° 258° (WSW) 21:00:01 437.475
FUNcube-1 02 Aug 20:54:02 20:56:51 18° 66° (ENE) 20:59:49 145.935
Cosmos 2499 02 Aug 20:54:11 21:00:41 23° 279° (W) 21:06:51 435.465 / 435.565
CINEMA 3 02 Aug 20:59:48 21:03:56 75° 76° (ENE) 21:08:11 145.822/145.860
UWE-3 02 Aug 21:00:10 21:03:42 27° 69° (ENE) 21:07:23 435.000/436.395/437.385
CANX-2 02 Aug 21:00:15 21:04:25 51° 261° (W) 21:08:38 2200.000
PRISM 02 Aug 21:01:35 21:05:02 25° 291° (WNW) 21:08:23 437.425
Oscar 11 02 Aug 21:02:31 21:06:29 36° 71° (ENE) 21:10:30 145.826/435.025
DOVE 4 02 Aug 21:03:46 21:07:42 41° 262° (W) 21:11:39 437.250
HUMSAT D 02 Aug 21:07:36 21:08:20 11° 62° (ENE) 21:09:18 437.325/437.525
AAUSAT CUBESAT 2 02 Aug 21:07:41 21:11:53 88° 257° (WSW) 21:16:08 437.432
CUBEBUG 2 02 Aug 21:18:49 21:22:54 55° 74° (ENE) 21:27:08 437.445
GOMX 1 02 Aug 21:25:46 21:28:19 15° 270° (W) 21:30:40 467.674
RS-15 02 Aug 21:32:58 21:43:45 73° 118° (ESE) 21:55:00 29.354- 29.394
VERMONT LUNAR 02 Aug 21:35:32 21:38:33 41° 195° (SSW) 21:41:33 437.305
DX 1 02 Aug 21:36:22 21:39:05 17° 65° (ENE) 21:41:55 434.975-435.025
M-CUBED/EXP-1 PRIME 02 Aug 21:49:13 21:52:50 22° 96° (E) 21:56:30 437.505
ISS 02 Aug 21:51:21 21:54:25 38° 334° (NNW) 21:57:31 145.825
STRAND 1 02 Aug 21:55:25 21:57:01 11° 301° (WNW) 21:58:21 437.568
VELOX 1 02 Aug 21:57:34 22:00:17 17° 65° (ENE) 22:03:08 145.980
50 SAT 02 Aug 21:59:33 22:02:04 17° 67° (ENE) 22:04:44 437.505
COMPASS 1 02 Aug 22:04:54 22:07:54 18° 269° (W) 22:10:46 437.405
ZACube-1 02 Aug 22:07:44 22:11:56 70° 259° (WSW) 22:16:14 437.345
ESTCUBE 1 02 Aug 22:16:03 22:19:09 19° 66° (ENE) 22:22:22 437.505/2401.250
AUBIESAT-1 02 Aug 22:16:20 22:20:39 34° 101° (E) 22:24:51 437.475
DELFI C3 02 Aug 22:16:33 22:20:29 47° 261° (W) 22:24:27 145.870
PHONESAT 2.4 02 Aug 22:18:05 22:21:35 66° 183° (S) 22:25:04 2401.200-2431.200
BEESAT 2 02 Aug 22:26:30 22:28:37 14° 111° (ESE) 22:30:54 435.950
HO-68 02 Aug 22:28:12 22:32:26 16° 273° (W) 22:36:15 435.675
FUNcube-1 02 Aug 22:28:53 22:32:52 41° 262° (W) 22:36:57 145.935
TIGRISAT 02 Aug 22:30:59 22:34:16 19° 91° (E) 22:37:42 435.000
Cosmos 2491 02 Aug 22:33:03 22:40:50 36° 69° (ENE) 22:48:43 435.465 / 435.565
ANTELSAT 02 Aug 22:33:25 22:36:56 21° 92° (E) 22:40:34 437.575/2403.000
UWE-3 02 Aug 22:36:39 22:40:13 26° 266° (W) 22:43:49 435.000/436.395/437.385
HUMSAT D 02 Aug 22:39:21 22:43:30 76° 258° (WSW) 22:47:43 437.325/437.525
Oscar 11 02 Aug 22:39:30 22:42:48 20° 268° (W) 22:46:00 145.826/435.025
UKube-1 02 Aug 22:39:36 22:43:53 70° 75° (ENE) 22:48:12 .
AISAT 02 Aug 22:53:37 22:57:58 65° 74° (ENE) 23:02:21 437.250
YUBILEINY 02 Aug 22:57:08 23:02:37 20° 80° (E) 23:08:35 435.215
CUBEBUG 2 02 Aug 22:58:05 23:00:04 13° 272° (W) 23:01:52 437.445
POLYITAN 1 02 Aug 22:59:29 23:01:38 14° 89° (E) 23:03:58 437.675
BEESAT 3 02 Aug 23:01:41 23:05:32 43° 118° (ESE) 23:09:27 437.485
CUBEBUG 1 02 Aug 23:02:09 23:06:16 43° 72° (ENE) 23:10:25 437.445
AIST 1 02 Aug 23:02:35 23:06:48 60° 80° (E) 23:11:00
DX 1 02 Aug 23:10:47 23:15:00 48° 261° (W) 23:19:12 434.975-435.025
VERMONT LUNAR 02 Aug 23:13:19 23:14:48 13° 210° (SSW) 23:16:13 437.305
POPSAT HIP 1 02 Aug 23:15:00 23:18:07 20° 92° (E) 23:21:21 437.405
QB50P2 02 Aug 23:22:51 23:26:23 25° 94° (E) 23:29:59 145.880/145.840
M-CUBED/EXP-1 PRIME 02 Aug 23:23:13 23:27:48 44° 294° (WNW) 23:32:14 437.505
UNISAT 6 02 Aug 23:24:03 23:28:45 69° 102° (ESE) 23:33:27 437.425
ISS 02 Aug 23:29:21 23:31:31 16° 353° (N) 23:33:41 145.825
SPROUT 02 Aug 23:31:24 23:34:57 27° 69° (ENE) 23:38:36 437.525
VELOX 1 02 Aug 23:32:12 23:36:29 50° 261° (W) 23:40:47 145.980
50 SAT 02 Aug 23:32:45 23:36:23 37° 263° (W) 23:40:03 437.505
TISAT 1 02 Aug 23:36:22 23:39:17 19° 67° (ENE) 23:42:19 437.305
DUCHIFAT 1 02 Aug 23:44:53 23:48:53 40° 98° (E) 23:52:56 145.980
RS-15 02 Aug 23:46:59 23:57:12 40° 324° (NW) 00:07:43 29.354- 29.394
QB50P1 02 Aug 23:49:34 23:53:42 48° 99° (E) 23:57:51 145.935-145.965
NANOSAT C BR1 02 Aug 23:50:00 23:54:07 48° 99° (E) 23:58:15 145.865
AUBIESAT-1 02 Aug 23:51:08 23:55:13 28° 297° (WNW) 23:59:08 437.475
ESTCUBE 1 02 Aug 23:51:21 23:55:43 46° 261° (W) 00:00:05 437.505/2401.250
PHONESAT 2.4 02 Aug 23:56:06 23:59:20 35° 200° (SSW) 00:02:33 2401.200-2431.200
BEESAT 2 03 Aug 00:02:13 00:06:16 56° 307° (NW) 00:10:20 435.950
TIGRISAT 03 Aug 00:06:46 00:11:15 45° 288° (WNW) 00:15:44 435.000
ANTELSAT 03 Aug 00:09:28 00:13:54 41° 289° (WNW) 00:18:19 437.575/2403.000
AIST 2 03 Aug 00:10:04 00:14:02 40° 117° (ESE) 00:18:03 435.215
ITUPSAT 1 03 Aug 00:14:54 00:15:11 10° 59° (ENE) 00:15:45 437.325
UKube-1 03 Aug 00:19:37 00:20:35 10° 272° (W) 00:21:17 .
O/OREOS (USA 219) 03 Aug 00:25:57 00:28:45 17° 101° (E) 00:31:44 437.305
Cosmos 2491 03 Aug 00:29:42 00:38:02 52° 270° (W) 00:46:18 435.465 / 435.565
AISAT 03 Aug 00:33:21 00:35:04 12° 272° (W) 00:36:32 437.250
POLYITAN 1 03 Aug 00:33:43 00:37:54 53° 287° (WNW) 00:42:05 437.675
CUBEBUG 1 03 Aug 00:39:57 00:42:53 17° 269° (W) 00:45:40 437.445
BEESAT 3 03 Aug 00:40:28 00:43:41 21° 316° (NW) 00:46:50 437.485
AIST 1 03 Aug 00:42:40 00:43:58 11° 275° (W) 00:45:01
BUGSAT 1 03 Aug 00:43:42 00:47:46 66° 285° (WNW) 00:51:50 437.445
YUBILEINY 03 Aug 00:49:43 00:58:27 85° 278° (W) 01:07:16 435.215
POPSAT HIP 1 03 Aug 00:50:12 00:54:07 36° 289° (WNW) 00:58:01 437.405
QB50P2 03 Aug 00:58:34 01:02:16 29° 291° (WNW) 01:05:55 145.880/145.840
UNISAT 6 03 Aug 01:02:28 01:05:00 14° 297° (WNW) 01:07:22 437.425
BEESAT 03 Aug 01:05:24 01:09:36 32° 68° (ENE) 01:13:52 436.000
Cosmos 2504 03 Aug 01:06:02 01:08:26 12° 76° (ENE) 01:11:24 435.465 / 435.565
ISS 03 Aug 01:06:23 01:08:50 19° 14° (NNE) 01:11:18 145.825
SPROUT 03 Aug 01:07:20 01:10:59 27° 265° (W) 01:14:36 437.525
TISAT 1 03 Aug 01:10:55 01:14:48 37° 262° (W) 01:18:43 437.305
DUCHIFAT 1 03 Aug 01:21:26 01:24:26 18° 294° (WNW) 01:27:19 145.980
SWISSCUBE 03 Aug 01:25:43 01:30:23 54° 72° (ENE) 01:35:06 437.505
QB50P1 03 Aug 01:26:31 01:29:13 16° 295° (WNW) 01:31:46 145.935-145.965
NANOSAT C BR1 03 Aug 01:26:55 01:29:37 16° 295° (WNW) 01:32:10 145.865
ITUPSAT 1 03 Aug 01:47:33 01:52:21 81° 76° (ENE) 01:57:12 437.325
AIST 2 03 Aug 01:49:13 01:52:45 24° 315° (NW) 01:56:14 435.215
O/OREOS (USA 219) 03 Aug 02:03:30 02:07:50 47° 297° (WNW) 02:12:12 437.305
RS-15 03 Aug 02:05:29 02:13:58 23° 358° (N) 02:22:43 29.354- 29.394
Oscar 19 03 Aug 02:06:44 02:11:48 52° 100° (E) 02:16:52 437.125/150
STARS 03 Aug 02:30:30 02:33:55 23° 67° (ENE) 02:37:26 437.465
ISS 03 Aug 02:42:28 02:45:43 69° 33° (NNE) 02:48:58 145.825
BEESAT 03 Aug 02:43:16 02:47:27 28° 265° (W) 02:51:34 436.000
YUBILEINY 03 Aug 02:50:59 02:56:54 19° 302° (WNW) 03:02:25 435.215
Cosmos 2504 03 Aug 02:52:09 02:59:16 77° 95° (E) 03:07:00 435.465 / 435.565
KKS-1 03 Aug 03:01:22 03:05:47 82° 77° (ENE) 03:10:14 437.445
SWISSCUBE 03 Aug 03:05:30 03:08:38 17° 270° (W) 03:11:35 437.505
AO-7 03 Aug 03:07:46 03:10:33 12° 84° (E) 03:14:02 29.400- 29.500
JAS-2 03 Aug 03:10:24 03:17:14 33° 91° (E) 03:24:04 435.910
Gurwin Techsat 1B 03 Aug 03:22:07 03:27:28 79° 103° (ESE) 03:32:47 435.225
ITUPSAT 1 03 Aug 03:29:34 03:30:57 11° 273° (W) 03:32:01 437.325
ITAMSAT 1 03 Aug 03:32:15 03:37:28 85° 103° (ESE) 03:42:39 435.822/435.867
CUSAT 1 03 Aug 03:41:10 03:43:04 17° 95° (E) 03:44:56 437.405
Oscar 19 03 Aug 03:46:57 03:50:50 21° 296° (WNW) 03:54:34 437.125/150
HORYU 2 03 Aug 03:59:18 04:02:44 22° 93° (E) 04:06:16 437.375
STARS 03 Aug 04:06:15 04:10:13 33° 264° (W) 04:14:10 437.465
MOZHAYETS 4 03 Aug 04:06:58 04:11:25 48° 73° (ENE) 04:15:56
ISS 03 Aug 04:19:57 04:21:49 14° 228° (SW) 04:23:35 145.825
RS-15 03 Aug 04:20:53 04:31:08 35° 31° (NNE) 04:41:56 29.354- 29.394
Cosmos 2504 03 Aug 04:47:13 04:52:35 21° 298° (WNW) 04:57:56 435.465 / 435.565
JAS-2 03 Aug 04:54:56 05:02:36 57° 290° (WNW) 05:10:04 435.910
AO-7 03 Aug 04:56:47 05:05:07 70° 105° (ESE) 05:13:23 29.400- 29.500
Gurwin Techsat 1B 03 Aug 05:03:50 05:06:51 15° 299° (WNW) 05:09:39 435.225
ITAMSAT 1 03 Aug 05:13:46 05:16:20 13° 300° (WNW) 05:18:38 435.822/435.867
DANDE 03 Aug 05:18:29 05:20:56 22° 284° (WNW) 05:23:07 436.750
GONETS M04 03 Aug 05:32:13 05:40:14 45° 89° (E) 05:48:22
HORYU 2 03 Aug 05:35:20 05:39:31 37° 290° (WNW) 05:43:38 437.375
MOZHAYETS 4 03 Aug 05:45:47 05:48:57 17° 270° (W) 05:51:59
STRAND 1 03 Aug 05:52:29 05:56:04 20° 64° (ENE) 05:59:49 437.568
Cubesat XI-IV 03 Aug 06:01:15 06:04:14 16° 89° (E) 06:07:27 437.490
CUBESAT XI-V 03 Aug 06:06:50 06:11:29 74° 77° (ENE) 06:16:10 437.345
PRISM 03 Aug 06:16:52 06:20:06 22° 67° (ENE) 06:23:23 437.425
RS-15 03 Aug 06:33:30 06:45:20 90° 231° (SW) 06:57:36 29.354- 29.394
JAS-2 03 Aug 06:42:45 06:46:11 13° 308° (NW) 06:49:11 435.910
BEESAT 2 03 Aug 06:44:03 06:46:12 14° 38° (NE) 06:48:28 435.950
AO-7 03 Aug 06:50:25 06:57:21 29° 304° (WNW) 07:04:03 29.400- 29.500
CUTE-I 03 Aug 06:54:56 07:00:05 48° 99° (E) 07:05:13 437.470
BEESAT 3 03 Aug 07:19:41 07:23:21 32° 48° (NE) 07:26:59 437.485
GONETS M04 03 Aug 07:29:04 07:37:12 41° 289° (WNW) 07:45:15
STRAND 1 03 Aug 07:29:52 07:34:55 54° 260° (W) 07:39:58 437.568
Cosmos 2499 03 Aug 07:36:33 07:43:51 63° 93° (E) 07:51:48 435.465 / 435.565
Cubesat XI-IV 03 Aug 07:39:37 07:44:55 68° 287° (WNW) 07:50:12 437.490
BRITE-PL 03 Aug 07:47:17 07:50:42 22° 94° (E) 07:54:23 437.365/2234.400
GOMX 1 03 Aug 07:47:40 07:49:49 13° 89° (E) 07:52:16 467.674
CUBESAT XI-V 03 Aug 07:47:56 07:49:33 11° 273° (W) 07:50:53 437.345
PRISM 03 Aug 07:51:35 07:55:22 32° 263° (W) 07:59:07 437.425
HO-68 03 Aug 08:05:27 08:09:32 16° 87° (E) 08:14:02 435.675
BEESAT 2 03 Aug 08:20:44 08:24:50 80° 238° (WSW) 08:28:51 435.950
AIST 2 03 Aug 08:31:16 08:35:04 32° 48° (NE) 08:38:49 435.215
SEEDS 03 Aug 08:31:20 08:33:11 13° 88° (E) 08:35:14 437.485
PCSat 03 Aug 08:34:16 08:39:23 47° 114° (ESE) 08:44:36 145.827
CUTE-I 03 Aug 08:35:43 08:39:53 23° 296° (WNW) 08:43:56 437.470
CUTE 1.7 + AOD 2 03 Aug 08:37:01 08:40:02 19° 91° (E) 08:43:10 437.475
M-CUBED/EXP-1 PRIME 03 Aug 08:37:20 08:40:51 27° 62° (ENE) 08:44:41 437.505
CANX-2 03 Aug 08:45:21 08:48:57 26° 94° (E) 08:52:34 2200.000
RS-15 03 Aug 08:47:33 08:56:37 25° 257° (WSW) 09:05:14 29.354- 29.394
SO-50 03 Aug 08:51:15 08:55:51 52° 118° (ESE) 09:00:37 436.795
AAUSAT CUBESAT 2 03 Aug 08:51:34 08:53:45 14° 89° (E) 08:56:07 437.432
CINEMA 3 03 Aug 08:54:21 08:57:39 19° 91° (E) 09:01:11 145.822/145.860
BEESAT 3 03 Aug 08:57:50 09:01:11 25° 246° (WSW) 09:04:24 437.485
DOVE 4 03 Aug 09:01:00 09:05:30 47° 99° (E) 09:10:17 437.250
AUBIESAT-1 03 Aug 09:03:54 09:07:50 44° 66° (ENE) 09:12:07 437.475
CUBEBUG 2 03 Aug 09:10:50 09:12:46 13° 88° (E) 09:14:58 437.445
GOMX 1 03 Aug 09:23:50 09:28:22 65° 284° (WNW) 09:33:13 467.674
BRITE-PL 03 Aug 09:25:16 09:29:22 37° 288° (WNW) 09:33:41 437.365/2234.400
TIGRISAT 03 Aug 09:30:53 09:33:43 18° 65° (ENE) 09:36:44 435.000
Cosmos 2499 03 Aug 09:31:31 09:37:47 26° 296° (WNW) 09:44:15 435.465 / 435.565
ANTELSAT 03 Aug 09:33:27 09:36:31 19° 66° (ENE) 09:39:47 437.575/2403.000
COMPASS 1 03 Aug 09:46:08 09:50:23 70° 101° (E) 09:54:34 437.405
HO-68 03 Aug 09:51:05 09:58:19 89° 287° (WNW) 10:05:32 435.675
POLYITAN 1 03 Aug 09:54:05 09:55:36 12° 63° (ENE) 09:57:20 437.675
DELFI C3 03 Aug 09:55:32 09:58:37 21° 93° (E) 10:01:46 145.870
ZACube-1 03 Aug 09:56:10 09:59:43 22° 93° (E) 10:03:23 437.345
SEEDS 03 Aug 10:05:12 10:09:24 56° 286° (WNW) 10:13:33 437.485
POPSAT HIP 1 03 Aug 10:08:55 10:11:33 17° 66° (ENE) 10:14:20 437.405
AIST 2 03 Aug 10:09:59 10:13:32 26° 246° (WSW) 10:16:57 435.215
M-CUBED/EXP-1 PRIME 03 Aug 10:11:57 10:15:34 29° 261° (W) 10:19:25 437.505
CUTE 1.7 + AOD 2 03 Aug 10:12:07 10:16:07 38° 289° (WNW) 10:20:05 437.475
FUNcube-1 03 Aug 10:16:19 10:20:29 35° 96° (E) 10:24:43 145.935
QB50P2 03 Aug 10:16:40 10:19:47 21° 67° (ENE) 10:23:02 145.880/145.840
PCSat 03 Aug 10:18:22 10:23:03 28° 313° (NW) 10:27:42 145.827
CANX-2 03 Aug 10:21:07 10:24:51 28° 291° (WNW) 10:28:29 2200.000
UNISAT 6 03 Aug 10:23:25 10:27:43 63° 74° (ENE) 10:32:11 437.425
HUMSAT D 03 Aug 10:23:45 10:26:35 17° 91° (E) 10:29:33 437.325/437.525
UWE-3 03 Aug 10:24:44 10:29:18 58° 100° (E) 10:33:55 435.000/436.395/437.385
Oscar 11 03 Aug 10:24:55 10:29:17 70° 101° (ESE) 10:33:36 145.826/435.025
AAUSAT CUBESAT 2 03 Aug 10:25:37 10:29:42 49° 287° (WNW) 10:33:43 437.432
UKube-1 03 Aug 10:29:03 10:30:06 11° 88° (E) 10:31:25 .
CINEMA 3 03 Aug 10:30:32 10:35:05 48° 287° (WNW) 10:39:47 145.822/145.860
SO-50 03 Aug 10:32:42 10:36:42 25° 318° (NW) 10:40:43 436.795
O/OREOS (USA 219) 03 Aug 10:33:40 10:37:55 37° 60° (ENE) 10:42:12 437.305
DUCHIFAT 1 03 Aug 10:37:45 10:41:28 32° 70° (ENE) 10:45:14 145.980
DOVE 4 03 Aug 10:39:35 10:43:01 20° 293° (WNW) 10:46:27 437.250
AUBIESAT-1 03 Aug 10:39:57 10:42:51 18° 265° (W) 10:45:46 437.475
QB50P1 03 Aug 10:42:44 10:46:37 38° 71° (ENE) 10:50:33 145.935-145.965
NANOSAT C BR1 03 Aug 10:42:58 10:46:49 37° 71° (ENE) 10:50:44 145.865
CUBEBUG 2 03 Aug 10:45:19 10:49:58 69° 285° (WNW) 10:54:41 437.445
AISAT 03 Aug 10:45:50 10:47:20 12° 88° (E) 10:49:06 437.250
DX 1 03 Aug 10:58:48 11:02:28 26° 95° (E) 11:06:10 434.975-435.025
YUBILEINY 03 Aug 10:59:23 11:07:53 50° 74° (ENE) 11:16:25 435.215
TIGRISAT 03 Aug 11:05:55 11:10:07 46° 262° (W) 11:14:26 435.000
50 SAT 03 Aug 11:07:46 11:10:55 23° 94° (E) 11:14:07 437.505
ANTELSAT 03 Aug 11:08:52 11:13:01 42° 263° (W) 11:17:17 437.575/2403.000
VELOX 1 03 Aug 11:22:17 11:26:04 28° 95° (E) 11:29:55 145.980
COMPASS 1 03 Aug 11:24:01 11:25:31 11° 297° (WNW) 11:26:48 437.405
POLYITAN 1 03 Aug 11:26:50 11:31:00 66° 258° (WSW) 11:35:13 437.675
DELFI C3 03 Aug 11:30:08 11:33:45 30° 290° (WNW) 11:37:16 145.870
ZACube-1 03 Aug 11:31:58 11:36:11 37° 289° (WNW) 11:40:23 437.345
AIST 1 03 Aug 11:32:33 11:36:29 34° 92° (E) 11:40:26
BUGSAT 1 03 Aug 11:33:56 11:37:59 89° 83° (E) 11:42:02 437.445
Cosmos 2491 03 Aug 11:34:59 11:42:50 40° 87° (E) 11:50:49 435.465 / 435.565
HO-68 03 Aug 11:40:23 11:45:13 19° 305° (NW) 11:49:46 435.675
POPSAT HIP 1 03 Aug 11:43:07 11:47:07 44° 261° (W) 11:51:10 437.405
ESTCUBE 1 03 Aug 11:43:31 11:47:37 34° 96° (E) 11:51:43 437.505/2401.250
Oscar 19 03 Aug 11:49:30 11:50:33 11° 58° (ENE) 11:51:53 437.125/150
QB50P2 03 Aug 11:51:39 11:55:30 34° 263° (W) 11:59:21 145.880/145.840
FUNcube-1 03 Aug 11:52:57 11:56:39 24° 292° (WNW) 12:00:16 145.935
HUMSAT D 03 Aug 11:58:26 12:02:33 43° 288° (WNW) 12:06:38 437.325/437.525
UKube-1 03 Aug 12:02:28 12:06:46 67° 286° (WNW) 12:11:02 .
UWE-3 03 Aug 12:02:32 12:05:25 16° 295° (WNW) 12:08:09 435.000/436.395/437.385
Oscar 11 03 Aug 12:03:06 12:04:56 12° 297° (WNW) 12:06:34 145.826/435.025
UNISAT 6 03 Aug 12:03:10 12:05:04 12° 273° (W) 12:06:44 437.425
O/OREOS (USA 219) 03 Aug 12:13:32 12:17:10 23° 257° (WSW) 12:20:41 437.305
DUCHIFAT 1 03 Aug 12:14:05 12:17:21 21° 267° (W) 12:20:32 145.980
QB50P1 03 Aug 12:19:41 12:22:39 18° 268° (W) 12:25:32 145.935-145.965
NANOSAT C BR1 03 Aug 12:19:50 12:22:50 18° 268° (W) 12:25:43 145.865
AISAT 03 Aug 12:20:03 12:24:26 65° 286° (WNW) 12:28:49 437.250
CUBEBUG 1 03 Aug 12:26:19 12:30:40 84° 102° (ESE) 12:35:01 437.445
DX 1 03 Aug 12:34:56 12:38:41 28° 291° (WNW) 12:42:22 434.975-435.025
Cosmos 2504 03 Aug 12:37:31 12:44:24 28° 66° (ENE) 12:51:38 435.465 / 435.565
50 SAT 03 Aug 12:42:03 12:45:29 27° 290° (WNW) 12:48:51 437.505
SPROUT 03 Aug 12:52:37 12:56:47 48° 99° (E) 13:00:59 437.525
TISAT 1 03 Aug 12:54:40 12:58:23 30° 96° (E) 13:02:09 437.305
YUBILEINY 03 Aug 12:56:37 13:04:32 37° 274° (W) 13:12:16 435.215
VELOX 1 03 Aug 12:58:49 13:02:34 27° 292° (WNW) 13:06:16 145.980
Gurwin Techsat 1B 03 Aug 13:06:08 13:09:33 18° 62° (ENE) 13:13:10 435.225
AIST 1 03 Aug 13:10:59 13:14:16 20° 289° (WNW) 13:17:26
ITAMSAT 1 03 Aug 13:13:26 13:16:52 19° 63° (ENE) 13:20:29 435.822/435.867
ESTCUBE 1 03 Aug 13:20:43 13:24:20 24° 293° (WNW) 13:27:50 437.505/2401.250
Oscar 19 03 Aug 13:24:02 13:29:09 79° 74° (ENE) 13:34:18 437.125/150
JAS-2 03 Aug 13:25:54 13:29:08 15° 53° (NE) 13:32:52 435.910
SWISSCUBE 03 Aug 13:27:20 13:29:28 13° 88° (E) 13:31:51 437.505
Cosmos 2491 03 Aug 13:31:18 13:39:40 46° 287° (WNW) 13:47:56 435.465 / 435.565
ITUPSAT 1 03 Aug 13:48:35 13:52:00 20° 92° (E) 13:55:33 437.325
CUBEBUG 1 03 Aug 14:06:00 14:06:26 10° 298° (WNW) 14:06:38 437.445
AO-7 03 Aug 14:06:21 14:12:23 24° 53° (NE) 14:18:41 29.400- 29.500
DANDE 03 Aug 14:12:09 14:14:13 14° 72° (ENE) 14:16:45 436.750
CUSAT 1 03 Aug 14:12:33 14:16:11 25° 75° (ENE) 14:20:47 437.405
Cosmos 2504 03 Aug 14:28:57 14:37:21 68° 267° (W) 14:45:52 435.465 / 435.565
SPROUT 03 Aug 14:29:47 14:32:31 16° 295° (WNW) 14:35:07 437.525
TISAT 1 03 Aug 14:30:37 14:34:02 24° 292° (WNW) 14:37:23 437.305
BEESAT 03 Aug 14:42:06 14:46:54 70° 103° (ESE) 14:51:38 436.000
Gurwin Techsat 1B 03 Aug 14:43:48 14:49:04 64° 258° (WSW) 14:54:23 435.225
ITAMSAT 1 03 Aug 14:50:47 14:55:57 61° 259° (W) 15:01:08 435.822/435.867
KKS-1 03 Aug 14:53:16 14:55:49 15° 90° (E) 14:58:32 437.445
HORYU 2 03 Aug 14:58:14 15:01:37 22° 66° (ENE) 15:05:07 437.375
SWISSCUBE 03 Aug 15:03:08 15:07:53 67° 287° (WNW) 15:12:36 437.505
JAS-2 03 Aug 15:06:45 15:12:56 74° 73° (ENE) 15:20:01 435.910
Oscar 19 03 Aug 15:07:00 15:09:13 12° 273° (W) 15:11:09 437.125/150
ITUPSAT 1 03 Aug 15:25:36 15:30:10 44° 289° (WNW) 15:34:40 437.325
GONETS M04 03 Aug 15:42:00 15:48:21 23° 62° (ENE) 15:55:03
SO-50 03 Aug 15:43:30 15:45:24 12° 30° (NNE) 15:47:29 436.795
DANDE 03 Aug 15:53:25 15:57:18 51° 262° (W) 16:02:30 436.750
CUSAT 1 03 Aug 15:54:35 15:58:41 35° 263° (W) 16:03:54 437.405
STARS 03 Aug 15:54:54 15:59:06 41° 98° (E) 16:03:18 437.465
AO-7 03 Aug 15:55:54 16:04:18 87° 254° (WSW) 16:12:44 29.400- 29.500
MOZHAYETS 4 03 Aug 16:04:10 16:05:14 11° 86° (E) 16:06:36
BEESAT 03 Aug 16:21:37 16:24:13 14° 298° (WNW) 16:26:36 436.000
Cosmos 2504 03 Aug 16:24:41 16:28:15 13° 284° (WNW) 16:31:12 435.465 / 435.565
KKS-1 03 Aug 16:28:27 16:32:48 51° 287° (WNW) 16:37:08 437.445
HORYU 2 03 Aug 16:33:55 16:38:04 37° 263° (W) 16:42:12 437.375
CUTE-I 03 Aug 16:41:19 16:43:14 12° 59° (ENE) 16:45:25 437.470
JAS-2 03 Aug 16:54:37 16:59:01 19° 276° (W) 17:03:28 435.910
VERMONT LUNAR 03 Aug 17:20:15 17:22:51 24° 157° (SSE) 17:25:29 437.305
PCSat 03 Aug 17:21:30 17:26:40 43° 53° (NE) 17:31:50 145.827
SO-50 03 Aug 17:22:15 17:27:08 55° 52° (NE) 17:31:55 436.795
Cubesat XI-IV 03 Aug 17:23:12 17:27:41 28° 66° (ENE) 17:32:16 437.490
Cosmos 2499 03 Aug 17:26:48 17:33:44 26° 64° (ENE) 17:41:01 435.465 / 435.565
STARS 03 Aug 17:32:02 17:35:17 20° 294° (WNW) 17:38:26 437.465
GONETS M04 03 Aug 17:37:39 17:46:25 81° 263° (W) 17:55:09
MOZHAYETS 4 03 Aug 17:38:29 17:43:07 75° 284° (WNW) 17:47:42
AO-7 03 Aug 17:52:53 17:58:24 18° 273° (W) 18:03:25 29.400- 29.500
CUBESAT XI-V 03 Aug 18:04:07 18:07:08 18° 90° (E) 18:10:18 437.345
CUTE-I 03 Aug 18:17:12 18:22:34 83° 76° (ENE) 18:27:58 437.470
PHONESAT 2.4 03 Aug 18:20:00 18:21:33 13° 149° (SSE) 18:23:13 2401.200-2431.200
HO-68 03 Aug 18:36:27 18:40:03 15° 52° (NE) 18:43:59 435.675
